Regional Weather Roundup
Issued by NWS

Home | Current Version | Previous Version | Graphics & Text | Print | Product List | Glossary On
Versions: 1 2 3 4 5 6 7 8 9 10 11 12 13 14 15 16 17 18 19 20 21 22 23 24 25 26 27 28 29 30 31 32 33 34 35 36 37 38 39 40 41 42 43 44 45 46 47 48 49 50
438
ASUS45 KBOI 262110
RWRID

IDAHO REGIONAL WEATHER ROUNDUP
NATIONAL WEATHER SERVICE BOISE ID
300 PM MDT THU MAY 26 2016

NOTE: "FAIR" INDICATES FEW OR NO CLOUDS BELOW 12000 FEET
WITH NO SIGNIFICANT WEATHER AND/OR OBSTRUCTIONS TO VISIBILITY

IDZ012-014-262200-
SOUTHWEST IDAHO


CITY           SKY/WX    TMP DP  RH WIND       PRES   REMARKS
BOISE          MOSUNNY   74  32  21 W17       29.97F
CALDWELL       SUNNY     75  42  30 W12G20    29.97F
MOUNTAIN HOME  PTSUNNY   75  43  31 NW14      29.96F
$$

IDZ016-017-262200-
SOUTHCENTRAL IDAHO


CITY           SKY/WX    TMP DP  RH WIND       PRES   REMARKS
BURLEY         SUNNY     68  40  35 VRB6      29.98F
JEROME         SUNNY     68  38  33 SW7       29.99F
TWIN FALLS     SUNNY     68  37  32 W13       30.00F
$$

IDZ019>023-262200-
SOUTHEAST IDAHO


CITY           SKY/WX    TMP DP  RH WIND       PRES   REMARKS
IDAHO FALLS    MOSUNNY   65  38  36 W10       29.98F
POCATELLO      MOSUNNY   67  32  27 VRB7      29.99F
REXBURG        SUNNY     63  39  41 VRB7      29.97F
$$

IDZ006-010-011-018-031-032-262200-
CENTRAL IDAHO MOUNTAINS


CITY           SKY/WX    TMP DP  RH WIND       PRES   REMARKS
MCCALL         CLOUDY    59  36  42 NW7       30.02S
HAILEY         PTSUNNY   61  39  44 SW6       30.02F
STANLEY          N/A     59  30  33 N7        30.04F
SALMON         PTSUNNY   64  36  34 CALM      29.93F
CHALLIS        PTSUNNY   65  31  28 VRB7      29.97F
$$

IDZ002-004-006-007-026-262200-
NORTHERN IDAHO


CITY           SKY/WX    TMP DP  RH WIND       PRES   REMARKS
LEWISTON       PTSUNNY   70  46  42 N6        29.98F
LOWELL           N/A     74  48  39 S7        29.93F
COEUR D`ALENE  CLOUDY    63  46  55 S12       29.98F
MULLAN PASS    CLOUDY    44  41  89 NW6       30.05F
$$




USA.gov is the U.S. government's official web portal to all federal, state and local government web resources and services.